GW0319 Weather Reports


time (UTC)temp
C
wind
direction
speed
KPH
gust
KPH
rain 1hr
cm
rain 24hr
cm
rain mn
cm
humidity
%
barometer
mb
20260505092936 10 0 0.0 1.6 0.05 0.66 0.18 93 1014.5
20260505092420 10 228 0.0 3.2 0.05 0.66 0.18 93 1014.5
20260505091919 10 223 1.6 3.2 0.05 0.66 0.18 93 1014.2
20260505091417 10 226 1.6 3.2 0.05 0.66 0.18 93 1014.5
20260505090915 10 0 0.0 0.0 0.08 0.66 0.18 93 1014.9
20260505090440 10 0 0.0 0.0 0.05 0.64 0.15 93 1015.0
20260505085918 10 0 0.0 3.2 0.05 0.64 0.15 93 1014.8
20260505085417 10 239 1.6 3.2 0.08 0.64 0.15 93 1015.0
20260505084916 10 233 3.2 4.8 0.10 0.64 0.15 93 1014.8
20260505084419 10 174 1.6 3.2 0.08 0.61 0.15 93 1014.7
20260505084020 10 223 3.2 3.2 0.10 0.61 0.15 93 1015.0
20260505083417 10 214 1.6 3.2 0.10 0.61 0.15 93 1015.0
20260505082916 10 159 1.6 3.2 0.13 0.61 0.15 93 1014.9
20260505082419 10 158 3.2 4.8 0.13 0.61 0.15 93 1014.9
20260505081918 10 160 1.6 3.2 0.15 0.61 0.15 93 1014.9
20260505081437 10 217 0.0 3.2 0.15 0.61 0.15 93 1014.7
20260505080916 10 0 0.0 1.6 0.13 0.58 0.13 93 1014.9
20260505080419 10 217 0.0 3.2 0.13 0.58 0.13 93 1014.7
20260505075918 10 113 1.6 3.2 0.13 0.58 0.13 92 1014.8
20260505075417 10 0 0.0 1.6 0.10 0.56 0.10 92 1014.8
20260505074916 10 169 1.6 4.8 0.08 0.53 0.08 92 1014.8
20260505074419 10 232 0.0 3.2 0.08 0.53 0.08 92 1014.8
20260505073918 10 224 1.6 3.2 0.05 0.51 0.05 92 1014.6
20260505073417 10 223 1.6 3.2 0.05 0.51 0.05 92 1015.1
20260505072916 10 188 1.6 3.2 0.03 0.48 0.03 92 1015.1
20260505072420 10 116 3.2 3.2 0.03 0.48 0.03 92 1015.4
20260505071919 10 200 1.6 3.2 0.00 0.48 0.00 92 1015.4
20260505071418 10 222 1.6 3.2 0.03 0.48 0.00 92 1015.1
20260505070917 10 0 0.0 1.6 0.03 0.48 0.00 92 1015.3
20260505070420 10 0 0.0 0.0 0.03 0.48 0.00 92 1015.4
20260505065919 10 156 1.6 3.2 0.03 0.48 0.48 92 1015.1
20260505065418 10 82 0.0 1.6 0.05 0.48 0.48 92 1015.2
20260505064916 10 0 0.0 1.6 0.05 0.48 0.48 92 1015.1
20260505064420 10 0 0.0 3.2 0.05 0.48 0.48 92 1014.9
20260505063918 10 96 1.6 3.2 0.05 0.48 0.48 92 1014.9
20260505063417 10 131 1.6 4.8 0.05 0.48 0.48 92 1014.7
20260505062916 10 0 0.0 3.2 0.08 0.48 0.48 92 1015.0
20260505062420 10 218 1.6 3.2 0.08 0.48 0.48 92 1015.2
20260505061919 10 220 1.6 3.2 0.08 0.48 0.48 92 1015.0
20260505061417 10 133 3.2 3.2 0.05 0.46 0.46 91 1015.0
20260505060917 10 0 0.0 1.6 0.08 0.46 0.46 91 1015.2
20260505060420 10 0 0.0 1.6 0.08 0.46 0.46 91 1015.3
20260505055939 10 0 0.0 0.0 0.10 0.46 0.46 91 1015.0
20260505055417 10 0 0.0 0.0 0.10 0.43 0.43 91 1015.0
20260505054916 10 0 0.0 0.0 0.10 0.43 0.43 91 1015.3
20260505054420 10 0 0.0 3.2 0.13 0.43 0.43 91 1015.0
20260505053919 10 224 1.6 3.2 0.15 0.43 0.43 91 1015.2
20260505053418 10 0 0.0 1.6 0.18 0.43 0.43 90 1015.0
20260505052916 10 0 0.0 1.6 0.18 0.41 0.41 90 1015.0
20260505052415 10 0 0.0 0.0 0.18 0.41 0.41 90 1015.3
20260505051919 10 0 0.0 1.6 0.20 0.41 0.41 90 1015.1
20260505051418 10 0 0.0 0.0 0.23 0.41 0.41 90 1015.2
20260505050917 10 227 0.0 3.2 0.23 0.38 0.38 90 1015.0
20260505050435 10 0 0.0 0.0 0.23 0.38 0.38 90 1015.2
20260505041420 10 0 0.0 0.0 0.10 0.15 0.15 89 1015.8
20260505040939 10 0 0.0 0.0 0.08 0.15 0.15 89 1016.0
20260505040418 10 0 0.0 1.6 0.08 0.15 0.15 88 1015.9
20260505035916 10 0 0.0 1.6 0.05 0.13 0.13 88 1015.5
20260505035420 10 120 1.6 3.2 0.08 0.13 0.13 88 1014.9
20260505034919 10 109 1.6 3.2 0.08 0.13 0.13 88 1014.8
20260505034418 10 108 1.6 3.2 0.08 0.13 0.13 88 1014.5
20260505033916 10 198 0.0 1.6 0.08 0.13 0.13 88 1014.5
20260505033501 10 92 0.0 3.2 0.08 0.13 0.13 87 1014.2
20260505032919 10 0 0.0 1.6 0.05 0.10 0.10 87 1014.3
20260505032438 10 179 1.6 3.2 0.05 0.10 0.10 87 1014.2
20260505031917 11 227 0.0 1.6 0.05 0.10 0.10 87 1014.2
20260505031415 11 124 1.6 3.2 0.03 0.08 0.08 87 1014.2
20260505030919 11 127 3.2 3.2 0.03 0.08 0.08 87 1014.2
20260505030418 11 132 3.2 3.2 0.03 0.08 0.08 86 1014.4
20260505025917 11 0 0.0 1.6 0.03 0.08 0.08 86 1014.5
20260505025435 11 160 1.6 3.2 0.00 0.05 0.05 86 1014.5
20260505024919 11 201 1.6 3.2 0.00 0.05 0.05 86 1014.6
20260505024438 11 205 0.0 1.6 0.00 0.05 0.05 86 1014.6
20260505023916 11 213 1.6 3.2 0.03 0.05 0.05 86 1014.5
20260505023435 11 0 0.0 1.6 0.03 0.05 0.05 86 1014.6
20260505022919 11 0 0.0 1.6 0.03 0.05 0.05 86 1014.6
20260505022418 11 176 1.6 3.2 0.03 0.05 0.05 86 1014.3
20260505021917 11 200 1.6 3.2 0.03 0.05 0.05 86 1014.3
20260505021416 12 155 3.2 4.8 0.03 0.05 0.05 86 1014.4
20260505020919 12 178 1.6 3.2 0.03 0.05 0.05 85 1014.4
20260505020418 12 182 1.6 4.8 0.03 0.05 0.05 86 1014.4
20260505015917 12 169 3.2 3.2 0.03 0.05 0.05 85 1014.6
20260505015415 12 191 3.2 3.2 0.03 0.05 0.05 85 1014.5
20260505014920 12 147 1.6 4.8 0.03 0.05 0.05 84 1014.6
20260505014418 12 166 3.2 3.2 0.05 0.05 0.05 84 1014.7
20260505013918 12 187 3.2 4.8 0.03 0.03 0.03 84 1014.7
20260505013436 12 179 3.2 3.2 0.03 0.03 0.03 84 1015.0
20260505012941 12 161 1.6 3.2 0.03 0.03 0.03 84 1014.9
20260505012418 12 193 1.6 3.2 0.03 0.03 0.03 84 1014.8
20260505011917 12 182 3.2 3.2 0.03 0.03 0.03 84 1015.0
20260505011418 12 182 3.2 3.2 0.03 0.03 0.03 84 1014.9
20260505010920 12 190 3.2 4.8 0.03 0.03 0.03 83 1014.9
20260505010418 13 216 4.8 4.8 0.03 0.03 0.03 83 1015.0
20260505005917 13 197 3.2 3.2 0.03 0.03 0.03 82 1014.9
20260505005437 13 195 3.2 4.8 0.03 0.03 0.03 81 1015.1
20260505004920 13 190 3.2 3.2 0.03 0.03 0.03 81 1015.2
20260505004418 13 201 3.2 4.8 0.00 0.00 0.00 81 1014.9
20260505003938 13 194 3.2 4.8 0.00 0.00 0.00 81 1015.0
20260505003416 13 186 3.2 4.8 0.00 0.00 0.00 80 1015.1
20260505002920 13 187 3.2 4.8 0.00 0.00 0.00 80 1015.2
20260505002419 13 206 3.2 4.8 0.00 0.00 0.00 80 1015.2
20260505001917 13 172 3.2 4.8 0.00 0.00 0.00 79 1015.0
20260505001415 13 182 1.6 3.2 0.00 0.00 0.00 79 1014.9
20260505000919 14 199 3.2 3.2 0.00 0.00 0.00 78 1014.8
20260505000420 14 202 3.2 3.2 0.00 0.00 0.00 77 1014.8
20260504235917 14 196 3.2 3.2 0.00 0.00 0.00 76 1014.8
20260504235416 14 213 3.2 4.8 0.00 0.00 0.00 76 1014.6
20260504234939 14 196 1.6 3.2 0.00 0.00 0.00 75 1014.7
20260504234418 14 202 0.0 3.2 0.00 0.00 0.00 74 1015.0
20260504233917 14 197 3.2 3.2 0.00 0.00 0.00 75 1014.8
20260504233416 14 158 1.6 3.2 0.00 0.00 0.00 74 1014.8
20260504232940 15 46 0.0 3.2 0.00 0.00 0.00 74 1014.8
20260504232418 15 177 1.6 3.2 0.00 0.00 0.00 73 1014.5
20260504231917 15 169 3.2 6.4 0.00 0.00 0.00 73 1014.4
20260504231416 15 213 1.6 3.2 0.00 0.00 0.00 73 1014.5
20260504230919 15 217 1.6 3.2 0.00 0.00 0.00 73 1014.6
20260504230438 15 101 0.0 3.2 0.00 0.00 0.00 73 1014.8
20260504225917 15 174 1.6 3.2 0.00 0.00 0.00 72 1014.7
20260504225416 15 180 1.6 3.2 0.00 0.00 0.00 72 1014.9
20260504224920 15 181 1.6 3.2 0.00 0.00 0.00 71 1014.8
20260504224418 16 178 1.6 3.2 0.00 0.00 0.00 70 1014.9
20260504223917 16 241 0.0 1.6 0.00 0.00 0.00 69 1014.8
20260504223416 16 222 1.6 6.4 0.00 0.00 0.00 68 1014.9
20260504222919 16 164 1.6 4.8 0.00 0.00 0.00 69 1014.9
20260504222418 16 192 1.6 3.2 0.00 0.00 0.00 68 1014.9
20260504221917 16 197 1.6 1.6 0.00 0.00 0.00 68 1015.1
20260504221436 16 219 0.0 1.6 0.00 0.00 0.00 67 1014.9
20260504220919 16 228 1.6 3.2 0.00 0.00 0.00 67 1015.0
20260504220418 16 193 0.0 1.6 0.00 0.00 0.00 68 1015.0
20260504215958 16 192 1.6 3.2 0.00 0.00 0.00 67 1014.9
20260504215417 16 200 1.6 3.2 0.00 0.00 0.00 68 1015.0
20260504214919 16 191 1.6 3.2 0.00 0.00 0.00 69 1014.8
20260504214418 16 205 1.6 3.2 0.00 0.00 0.00 71 1014.8
20260504213917 16 187 3.2 3.2 0.00 0.00 0.00 69 1014.8
20260504213416 16 0 0.0 1.6 0.00 0.00 0.00 71 1014.9
20260504212919 16 214 0.0 3.2 0.00 0.00 0.00 70 1015.1
20260504212418 16 215 1.6 3.2 0.00 0.00 0.00 70 1014.9
20260504211917 16 277 3.2 3.2 0.00 0.00 0.00 70 1014.9
20260504211416 16 220 3.2 4.8 0.00 0.00 0.00 71 1015.0
20260504210919 16 209 3.2 4.8 0.00 0.00 0.00 70 1015.1
20260504210418 16 226 1.6 4.8 0.00 0.00 0.00 71 1014.9
20260504205937 16 185 3.2 3.2 0.00 0.00 0.00 72 1015.1
20260504205436 16 208 1.6 3.2 0.00 0.00 0.00 72 1015.0
20260504204919 16 185 1.6 3.2 0.00 0.00 0.00 71 1015.1
20260504204419 16 151 3.2 4.8 0.00 0.00 0.00 71 1014.9
20260504203917 16 264 0.0 6.4 0.00 0.00 0.00 71 1014.9
20260504203416 16 122 6.4 8.0 0.00 0.00 0.00 71 1015.0
20260504202919 16 128 6.4 8.0 0.00 0.00 0.00 71 1014.9
20260504202418 16 241 3.2 4.8 0.00 0.00 0.00 72 1014.8
20260504201917 15 207 3.2 3.2 0.00 0.00 0.00 71 1015.0
20260504201436 15 133 3.2 4.8 0.00 0.00 0.00 70 1015.1
20260504200920 15 148 4.8 6.4 0.00 0.00 0.00 69 1015.3
20260504200419 15 204 3.2 3.2 0.00 0.00 0.00 68 1015.3
20260504195917 15 147 3.2 4.8 0.00 0.00 0.00 69 1015.2
20260504195416 15 205 3.2 4.8 0.00 0.00 0.00 69 1015.2
20260504194920 15 184 3.2 4.8 0.00 0.00 0.00 69 1015.0
20260504194419 15 210 3.2 3.2 0.00 0.00 0.00 70 1015.2
20260504193917 15 195 0.0 1.6 0.00 0.00 0.00 70 1015.2
20260504193436 15 202 3.2 6.4 0.00 0.00 0.00 68 1015.0
20260504192920 16 217 3.2 8.0 0.00 0.00 0.00 68 1015.0
20260504192419 16 204 4.8 4.8 0.00 0.00 0.00 68 1015.1
20260504191917 16 156 1.6 4.8 0.00 0.00 0.00 67 1015.2
20260504191416 16 191 1.6 3.2 0.00 0.00 0.00 66 1015.1
20260504190915 16 184 3.2 4.8 0.00 0.00 0.00 66 1015.2
20260504190419 16 173 3.2 3.2 0.00 0.00 0.00 65 1015.2
20260504185938 16 201 1.6 4.8 0.00 0.00 0.00 64 1014.9
20260504185417 17 235 3.2 4.8 0.00 0.00 0.00 62 1014.9
20260504184920 17 162 1.6 4.8 0.00 0.00 0.00 65 1015.0
20260504184419 17 155 3.2 4.8 0.00 0.00 0.00 63 1015.0
20260504183938 17 181 1.6 3.2 0.00 0.00 0.00 63 1015.1
20260504183417 17 138 3.2 4.8 0.00 0.00 0.00 65 1015.0
20260504182916 16 194 1.6 3.2 0.00 0.00 0.00 67 1014.9
20260504182419 16 202 3.2 3.2 0.00 0.00 0.00 68 1015.0
20260504181918 16 78 1.6 4.8 0.00 0.00 0.00 66 1014.9
20260504181416 16 213 3.2 6.4 0.00 0.00 0.00 68 1015.1
20260504180915 16 184 1.6 3.2 0.00 0.00 0.00 69 1015.0
20260504180419 16 145 1.6 3.2 0.00 0.00 0.00 68 1015.1
20260504175938 16 193 3.2 4.8 0.00 0.00 0.00 68 1014.9
20260504175417 16 181 3.2 3.2 0.00 0.00 0.00 68 1014.8
20260504174936 16 171 3.2 4.8 0.00 0.00 0.00 67 1014.7
20260504174419 16 189 1.6 4.8 0.00 0.00 0.00 70 1014.5
20260504173918 16 170 3.2 4.8 0.00 0.00 0.00 70 1014.7
20260504173438 16 182 1.6 3.2 0.00 0.00 0.00 70 1014.6
20260504172936 16 36 3.2 4.8 0.00 0.00 0.00 71 1014.9
20260504172420 16 192 3.2 4.8 0.00 0.00 0.00 71 1014.7
20260504171918 16 157 1.6 4.8 0.00 0.00 0.00 72 1014.7
20260504171417 16 198 4.8 8.0 0.00 0.00 0.00 72 1014.5
20260504170915 15 191 3.2 6.4 0.00 0.00 0.00 73 1014.5
20260504170419 15 203 6.4 8.0 0.00 0.00 0.00 76 1014.5
20260504160420 12 257 3.2 4.8 0.00 0.00 0.00 89 1014.8
20260504150936 8 0 0.0 1.6 0.00 0.00 0.00 92 1014.6
20260504150420 8 178 1.6 3.2 0.00 0.00 0.00 92 1014.6
20260504140917 6 0 0.0 0.0 0.00 0.00 0.00 90 1014.7
20260504140420 6 0 0.0 0.0 0.00 0.00 0.00 90 1014.6
20260504130416 6 236 0.0 3.2 0.00 0.00 0.00 90 1014.1
20260504110416 7 212 1.6 3.2 0.00 0.00 0.00 89 1013.9
20260504100417 7 0 0.0 1.6 0.00 0.00 0.00 89 1014.0